Time,TemperatureF,DewpointF,PressureIn,WindDirection,WindDirectionDegrees,WindSpeedMPH,WindSpeedGustMPH,Humidity,HourlyPrecipIn,Conditions,Clouds,dailyrainin,SolarRadiationWatts/m^2,SoftwareType,DateUTC
2013-07-11 00:01:00,52.0,47.0,-100.00,WNW,291,13.0,19.0,82,0.00,,,0.00,1.000000,,2013-07-11 07:01:00,
2013-07-11 00:12:00,52.0,47.0,-100.00,WNW,291,13.0,19.0,82,0.00,,,0.00,1.000000,,2013-07-11 07:12:00,
2013-07-11 00:22:00,52.0,47.0,-100.00,WNW,291,13.0,19.0,82,0.00,,,0.00,1.000000,,2013-07-11 07:22:00,
2013-07-11 00:32:00,52.0,47.0,-100.00,WNW,291,13.0,19.0,82,0.00,,,0.00,1.000000,,2013-07-11 07:32:00,
2013-07-11 00:33:00,49.0,46.0,-100.00,WNW,298,3.0,17.0,91,0.00,,,0.00,1.000000,,2013-07-11 07:33:00,
2013-07-11 01:02:00,49.0,46.0,-100.00,WNW,298,3.0,17.0,91,0.00,,,0.00,1.000000,,2013-07-11 08:02:00,
2013-07-11 01:11:00,49.0,46.0,-100.00,WNW,298,3.0,17.0,91,0.00,,,0.00,1.000000,,2013-07-11 08:11:00,
2013-07-11 01:22:00,49.0,46.0,-100.00,WNW,298,3.0,17.0,91,0.00,,,0.00,1.000000,,2013-07-11 08:22:00,
2013-07-11 01:33:00,49.0,47.0,-100.00,WNW,282,0.0,13.0,92,0.00,,,0.00,0.000000,,2013-07-11 08:33:00,
2013-07-11 02:02:00,49.0,47.0,-100.00,WNW,282,0.0,13.0,92,0.00,,,0.00,0.000000,,2013-07-11 09:02:00,
2013-07-11 02:12:00,49.0,47.0,-100.00,WNW,282,0.0,13.0,92,0.00,,,0.00,0.000000,,2013-07-11 09:12:00,
2013-07-11 02:21:00,49.0,47.0,-100.00,WNW,282,0.0,13.0,92,0.00,,,0.00,0.000000,,2013-07-11 09:21:00,
2013-07-11 02:33:00,49.0,47.0,-100.00,WNW,287,10.0,14.0,94,0.00,,,0.00,0.000000,,2013-07-11 09:33:00,
2013-07-11 02:53:00,49.0,47.0,-100.00,WNW,287,10.0,14.0,94,0.00,,,0.00,0.000000,,2013-07-11 09:53:00,
2013-07-11 03:01:00,49.0,47.0,-100.00,WNW,287,10.0,14.0,94,0.00,,,0.00,0.000000,,2013-07-11 10:01:00,
2013-07-11 03:11:00,49.0,47.0,-100.00,WNW,287,10.0,14.0,94,0.00,,,0.00,0.000000,,2013-07-11 10:11:00,
2013-07-11 03:21:00,49.0,47.0,-100.00,WNW,287,10.0,14.0,94,0.00,,,0.00,0.000000,,2013-07-11 10:21:00,
2013-07-11 04:02:00,48.0,47.0,-100.00,West,275,0.0,12.0,95,0.00,,,0.00,1.000000,,2013-07-11 11:02:00,
2013-07-11 04:12:00,48.0,47.0,-100.00,West,275,0.0,12.0,95,0.00,,,0.00,1.000000,,2013-07-11 11:12:00,
2013-07-11 04:22:00,48.0,47.0,-100.00,West,275,0.0,12.0,95,0.00,,,0.00,1.000000,,2013-07-11 11:22:00,
2013-07-11 04:32:00,48.0,47.0,-100.00,West,275,0.0,12.0,95,0.00,,,0.00,1.000000,,2013-07-11 11:32:00,
2013-07-11 04:33:00,47.0,46.0,-100.00,WNW,285,0.0,0.0,95,0.00,,,-99.99,1.000000,,2013-07-11 11:33:00,
2013-07-11 04:53:00,47.0,46.0,-100.00,WNW,285,0.0,0.0,95,0.00,,,-99.99,1.000000,,2013-07-11 11:53:00,
2013-07-11 05:01:00,47.0,46.0,-100.00,WNW,285,0.0,0.0,95,0.00,,,-99.99,1.000000,,2013-07-11 12:01:00,
2013-07-11 05:12:00,47.0,46.0,-100.00,WNW,285,0.0,0.0,95,0.00,,,-99.99,1.000000,,2013-07-11 12:12:00,
2013-07-11 05:22:00,47.0,46.0,-100.00,WNW,285,0.0,0.0,95,0.00,,,-99.99,1.000000,,2013-07-11 12:22:00,
2013-07-11 05:33:00,47.0,46.0,-100.00,WNW,291,0.0,0.0,95,0.00,,,-99.99,1.000000,,2013-07-11 12:33:00,
2013-07-11 05:57:00,47.0,46.0,-100.00,WNW,291,0.0,0.0,95,0.00,,,-99.99,1.000000,,2013-07-11 12:57:00,
2013-07-11 06:12:00,47.0,46.0,-100.00,WNW,291,0.0,0.0,95,0.00,,,-99.99,1.000000,,2013-07-11 13:12:00,
2013-07-11 06:22:00,47.0,46.0,-100.00,WNW,291,0.0,0.0,95,0.00,,,-99.99,1.000000,,2013-07-11 13:22:00,
2013-07-11 07:04:00,47.0,46.0,-100.00,West,263,0.0,0.0,96,0.00,,,0.00,6.000000,,2013-07-11 14:04:00,
2013-07-11 07:13:00,47.0,46.0,-100.00,West,263,0.0,0.0,96,0.00,,,0.00,6.000000,,2013-07-11 14:13:00,
2013-07-11 07:22:00,47.0,46.0,-100.00,West,263,0.0,0.0,96,0.00,,,0.00,6.000000,,2013-07-11 14:22:00,
2013-07-11 07:33:00,48.0,47.0,-100.00,West,279,0.0,0.0,96,0.00,,,0.00,67.000000,,2013-07-11 14:33:00,
2013-07-11 08:04:00,48.0,47.0,-100.00,West,279,0.0,0.0,96,0.00,,,0.00,67.000000,,2013-07-11 15:04:00,
2013-07-11 08:12:00,48.0,47.0,-100.00,West,279,0.0,0.0,96,0.00,,,0.00,67.000000,,2013-07-11 15:12:00,
2013-07-11 08:23:00,48.0,47.0,-100.00,West,279,0.0,0.0,96,0.00,,,0.00,67.000000,,2013-07-11 15:23:00,
2013-07-11 08:33:00,51.0,50.0,-100.00,West,278,1.0,8.0,96,0.00,,,0.00,195.000000,,2013-07-11 15:33:00,
2013-07-11 09:04:00,51.0,50.0,-100.00,West,278,1.0,8.0,96,0.00,,,0.00,195.000000,,2013-07-11 16:04:00,
2013-07-11 09:13:00,51.0,50.0,-100.00,West,278,1.0,8.0,96,0.00,,,0.00,195.000000,,2013-07-11 16:13:00,
2013-07-11 09:22:00,51.0,50.0,-100.00,West,278,1.0,8.0,96,0.00,,,0.00,195.000000,,2013-07-11 16:22:00,
2013-07-11 09:56:00,59.0,51.0,-100.00,South,177,0.0,0.0,75,0.00,,,0.00,485.000000,,2013-07-11 16:56:00,
2013-07-11 10:02:00,59.0,51.0,-100.00,South,177,0.0,0.0,75,0.00,,,0.00,485.000000,,2013-07-11 17:02:00,
2013-07-11 10:13:00,59.0,51.0,-100.00,South,177,0.0,0.0,75,0.00,,,0.00,485.000000,,2013-07-11 17:13:00,
2013-07-11 10:23:00,59.0,51.0,-100.00,South,177,0.0,0.0,75,0.00,,,0.00,485.000000,,2013-07-11 17:23:00,
2013-07-11 11:03:00,63.0,49.0,-100.00,SE,145,0.0,0.0,60,0.00,,,0.00,687.000000,,2013-07-11 18:03:00,
2013-07-11 11:13:00,63.0,49.0,-100.00,SE,145,0.0,0.0,60,0.00,,,0.00,687.000000,,2013-07-11 18:13:00,
2013-07-11 11:22:00,63.0,49.0,-100.00,SE,145,0.0,0.0,60,0.00,,,0.00,687.000000,,2013-07-11 18:22:00,
2013-07-11 11:33:00,66.0,50.0,-100.00,SSE,158,0.0,7.0,56,0.00,,,0.00,833.000000,,2013-07-11 18:33:00,
2013-07-11 11:56:00,66.0,50.0,-100.00,SSE,158,0.0,7.0,56,0.00,,,0.00,833.000000,,2013-07-11 18:56:00,
2013-07-11 12:03:00,66.0,50.0,-100.00,SSE,158,0.0,7.0,56,0.00,,,0.00,833.000000,,2013-07-11 19:03:00,
2013-07-11 12:12:00,66.0,50.0,-100.00,SSE,158,0.0,7.0,56,0.00,,,0.00,833.000000,,2013-07-11 19:12:00,
2013-07-11 12:22:00,66.0,50.0,-100.00,SSE,158,0.0,7.0,56,0.00,,,0.00,833.000000,,2013-07-11 19:22:00,
2013-07-11 12:33:00,71.0,52.0,-100.00,SE,145,3.0,11.0,52,0.00,,,0.00,930.000000,,2013-07-11 19:33:00,
2013-07-11 13:03:00,71.0,52.0,-100.00,SE,145,3.0,11.0,52,0.00,,,0.00,930.000000,,2013-07-11 20:03:00,
2013-07-11 13:12:00,71.0,52.0,-100.00,SE,145,3.0,11.0,52,0.00,,,0.00,930.000000,,2013-07-11 20:12:00,
2013-07-11 13:23:00,71.0,52.0,-100.00,SE,145,3.0,11.0,52,0.00,,,0.00,930.000000,,2013-07-11 20:23:00,
2013-07-11 13:33:00,73.0,50.0,-100.00,South,176,0.0,10.0,44,0.00,,,0.00,977.000000,,2013-07-11 20:33:00,
2013-07-11 14:03:00,73.0,50.0,-100.00,South,176,0.0,10.0,44,0.00,,,0.00,977.000000,,2013-07-11 21:03:00,
2013-07-11 14:13:00,73.0,50.0,-100.00,South,176,0.0,10.0,44,0.00,,,0.00,977.000000,,2013-07-11 21:13:00,
2013-07-11 14:22:00,73.0,50.0,-100.00,South,176,0.0,10.0,44,0.00,,,0.00,977.000000,,2013-07-11 21:22:00,
2013-07-11 15:04:00,75.0,51.0,-100.00,West,271,2.0,17.0,43,0.00,,,0.00,972.000000,,2013-07-11 22:04:00,
2013-07-11 15:13:00,75.0,51.0,-100.00,West,271,2.0,17.0,43,0.00,,,0.00,972.000000,,2013-07-11 22:13:00,
2013-07-11 15:22:00,75.0,51.0,-100.00,West,271,2.0,17.0,43,0.00,,,0.00,972.000000,,2013-07-11 22:22:00,
2013-07-11 15:31:00,75.0,51.0,-100.00,West,271,2.0,17.0,43,0.00,,,0.00,972.000000,,2013-07-11 22:31:00,
2013-07-11 15:33:00,74.0,49.0,-100.00,West,277,8.0,17.0,41,0.00,,,0.00,916.000000,,2013-07-11 22:33:00,
2013-07-11 16:33:00,72.0,48.0,-100.00,West,273,10.0,18.0,42,0.00,,,0.00,809.000000,,2013-07-11 23:33:00,
2013-07-11 16:58:00,72.0,48.0,-100.00,West,273,10.0,18.0,42,0.00,,,0.00,809.000000,,2013-07-11 23:58:00,
2013-07-11 17:03:00,72.0,48.0,-100.00,West,273,10.0,18.0,42,0.00,,,0.00,809.000000,,2013-07-12 00:03:00,
2013-07-11 17:23:00,72.0,48.0,-100.00,West,273,10.0,18.0,42,0.00,,,0.00,809.000000,,2013-07-12 00:23:00,
2013-07-11 17:58:00,69.0,47.0,-100.00,WNW,285,1.0,19.0,46,-99.99,,,0.00,656.000000,,2013-07-12 00:58:00,
2013-07-11 18:12:00,69.0,47.0,-100.00,WNW,285,1.0,19.0,46,-99.99,,,0.00,656.000000,,2013-07-12 01:12:00,
2013-07-11 18:23:00,69.0,47.0,-100.00,WNW,285,1.0,19.0,46,-99.99,,,0.00,656.000000,,2013-07-12 01:23:00,
2013-07-11 18:32:00,69.0,47.0,-100.00,WNW,285,1.0,19.0,46,-99.99,,,0.00,656.000000,,2013-07-12 01:32:00,
2013-07-11 18:33:00,67.0,48.0,-100.00,WNW,287,14.0,17.0,51,0.00,,,0.00,470.000000,,2013-07-12 01:33:00,
2013-07-11 18:56:00,67.0,48.0,-100.00,WNW,287,14.0,17.0,51,0.00,,,0.00,470.000000,,2013-07-12 01:56:00,
2013-07-11 19:03:00,67.0,48.0,-100.00,WNW,287,14.0,17.0,51,0.00,,,0.00,470.000000,,2013-07-12 02:03:00,
2013-07-11 19:14:00,67.0,48.0,-100.00,WNW,287,14.0,17.0,51,0.00,,,0.00,470.000000,,2013-07-12 02:14:00,
2013-07-11 19:24:00,67.0,48.0,-100.00,WNW,287,14.0,17.0,51,0.00,,,0.00,470.000000,,2013-07-12 02:24:00,
2013-07-11 19:33:00,62.0,48.0,-100.00,WNW,282,9.0,17.0,61,0.00,,,0.00,276.000000,,2013-07-12 02:33:00,
2013-07-11 19:55:00,62.0,48.0,-100.00,WNW,282,9.0,17.0,61,0.00,,,0.00,276.000000,,2013-07-12 02:55:00,
2013-07-11 20:02:00,62.0,48.0,-100.00,WNW,282,9.0,17.0,61,0.00,,,0.00,276.000000,,2013-07-12 03:02:00,
2013-07-11 20:13:00,62.0,48.0,-100.00,WNW,282,9.0,17.0,61,0.00,,,0.00,276.000000,,2013-07-12 03:13:00,
2013-07-11 20:23:00,62.0,48.0,-100.00,WNW,282,9.0,17.0,61,0.00,,,0.00,276.000000,,2013-07-12 03:23:00,
2013-07-11 21:01:00,55.0,47.0,-100.00,NW,325,0.0,13.0,75,0.00,,,0.00,86.000000,,2013-07-12 04:01:00,
2013-07-11 21:11:00,55.0,47.0,-100.00,NW,325,0.0,13.0,75,0.00,,,0.00,86.000000,,2013-07-12 04:11:00,
2013-07-11 21:21:00,55.0,47.0,-100.00,NW,325,0.0,13.0,75,0.00,,,0.00,86.000000,,2013-07-12 04:21:00,
2013-07-11 21:32:00,55.0,47.0,-100.00,NW,325,0.0,13.0,75,0.00,,,0.00,86.000000,,2013-07-12 04:32:00,
2013-07-11 21:53:00,54.0,48.0,-100.00,NW,313,1.0,9.0,81,0.00,,,0.00,2.000000,,2013-07-12 04:53:00,
2013-07-11 22:02:00,54.0,48.0,-100.00,NW,313,1.0,9.0,81,0.00,,,0.00,2.000000,,2013-07-12 05:02:00,
2013-07-11 22:11:00,54.0,48.0,-100.00,NW,313,1.0,9.0,81,0.00,,,0.00,2.000000,,2013-07-12 05:11:00,
2013-07-11 22:22:00,54.0,48.0,-100.00,NW,313,1.0,9.0,81,0.00,,,0.00,2.000000,,2013-07-12 05:22:00,
2013-07-11 22:32:00,54.0,48.0,-100.00,NW,313,1.0,9.0,81,0.00,,,0.00,2.000000,,2013-07-12 05:32:00,
2013-07-11 22:53:00,50.0,47.0,-100.00,WNW,303,0.0,14.0,89,0.00,,,0.00,1.000000,,2013-07-12 05:53:00,
2013-07-11 23:01:00,50.0,47.0,-100.00,WNW,303,0.0,14.0,89,0.00,,,0.00,1.000000,,2013-07-12 06:01:00,
2013-07-11 23:11:00,50.0,47.0,-100.00,WNW,303,0.0,14.0,89,0.00,,,0.00,1.000000,,2013-07-12 06:11:00,
2013-07-11 23:22:00,50.0,47.0,-100.00,WNW,303,0.0,14.0,89,0.00,,,0.00,1.000000,,2013-07-12 06:22:00,
2013-07-11 23:32:00,50.0,47.0,-100.00,WNW,303,0.0,14.0,89,0.00,,,0.00,1.000000,,2013-07-12 06:32:00,
2013-07-11 23:52:00,50.0,47.0,-100.00,WNW,286,0.0,9.0,90,0.00,,,0.00,1.000000,,2013-07-12 06:52:00,